This is the latest recevied weather packets stored in our database for station/object KF0EZB. If no packets are shown the sender has not sent any weather packets the latest 10 day(s).
| Time | Temp. | Humidity | Pressure | Rain* | Wind** | Luminosity | Snow |
|---|---|---|---|---|---|---|---|
| 1777829990 | 28.89° C | 20% | 1012.3 hPa | 0 mm | - | 713 W/m² | - |
| 1777829686 | 28.33° C | 19% | 1012.5 hPa | 0 mm | - | 750 W/m² | - |
| 1777829383 | 28.33° C | 19% | 1012.3 hPa | 0 mm | - | 766 W/m² | - |
| 1777829080 | 28.33° C | 19% | 1012.4 hPa | 0 mm | - | 772 W/m² | - |
| 1777828777 | 27.78° C | 20% | 1012.5 hPa | 0 mm | - | 750 W/m² | - |
| 1777828473 | 27.78° C | 20% | 1012.8 hPa | 0 mm | - | 717 W/m² | - |
| 1777828171 | 27.78° C | 18% | 1012.8 hPa | 0 mm | - | 722 W/m² | - |
| 1777827867 | 27.78° C | 19% | 1012.7 hPa | 0 mm | - | 697 W/m² | - |
| 1777827564 | 27.78° C | 20% | 1012.8 hPa | 0 mm | - | 731 W/m² | - |
| 1777827262 | 27.78° C | 21% | 1012.8 hPa | 0 mm | - | 762 W/m² | - |
| 1777826957 | 27.78° C | 20% | 1012.9 hPa | 0 mm | - | 783 W/m² | - |
| 1777826655 | 27.78° C | 20% | 1013 hPa | 0 mm | - | 764 W/m² | - |
| 1777826351 | 27.78° C | 19% | 1013 hPa | 0 mm | - | 770 W/m² | - |
| 1777826049 | 27.22° C | 21% | 1012.8 hPa | 0 mm | - | 737 W/m² | - |
| 1777825746 | 27.22° C | 20% | 1012.8 hPa | 0 mm | - | 704 W/m² | - |
| 1777825444 | 27.22° C | 20% | 1012.9 hPa | 0 mm | - | 700 W/m² | - |
| 1777825140 | 27.22° C | 20% | 1012.9 hPa | 0 mm | - | 737 W/m² | - |
| 1777824836 | 27.22° C | 22% | 1013.2 hPa | 0 mm | - | 774 W/m² | - |
| 1777824533 | 26.67° C | 22% | 1013.2 hPa | 0 mm | - | 772 W/m² | - |
| 1777824230 | 26.67° C | 21% | 1013.3 hPa | 0 mm | - | 738 W/m² | - |
| 1777823925 | 26.67° C | 24% | 1013 hPa | 0 mm | - | 738 W/m² | - |
| 1777823623 | 26.67° C | 24% | 1013 hPa | 0 mm | - | 719 W/m² | - |
| 1777823320 | 26.11° C | 26% | 1013.2 hPa | 0 mm | - | 664 W/m² | - |
| 1777823017 | 26.11° C | 25% | 1013 hPa | 0 mm | - | 629 W/m² | - |
| 1777822715 | 26.11° C | 26% | 1013.3 hPa | 0 mm | - | 629 W/m² | - |
* Rain latest hour (hover to see other rain measurements)
** Current wind speed in m/s (hover to see current wind gust speed)